Location: Newark
(54.4333°N, 18.5500°E)
Time: 14:29:47
(UTC+00:00)

Envisat - Pass Details

Date: 14 December 2019
Orbit: 764 x 766 km, 98.1° (Epoch: 23 January)

Event Time Altitude Azimuth Distance (km) Brightness Sun altitude
Rises 05:27:43 0° 17° (NNE) 3,248 6.2 -12.1°
Reaches altitude 10° 05:30:04 10° 21° (NNE) 2,317 5.5 -11.8°
Maximum altitude 05:35:07 58° 101° (E) 892 3.7 -11.2°
Drops below altitude 10° 05:40:07 10° 181° (S) 2,299 5.8 -10.5°
Sets 05:42:27 0° 185° (S) 3,221 6.5 -10.2°
